Regional Weather Roundup
Issued by NWS

Home | Current Version | Previous Version | Text Only | Print | Product List | Glossary On
Versions: 1 2 3 4 5 6 7 8 9 10 11 12 13 14 15 16 17 18 19 20 21 22 23 24 25 26 27 28 29
000
ASUS45 KBOI 252110
RWRID
WEATHER ROUNDUP FOR IDAHO
NATIONAL WEATHER SERVICE BOISE ID
300 PM MDT SAT OCT 25 2014

NOTE: "FAIR" INDICATES FEW OR NO CLOUDS BELOW 12000 FEET
WITH NO SIGNIFICANT WEATHER AND/OR OBSTRUCTIONS TO VISIBILITY

IDZ012-014-252200-
SOUTHWEST IDAHO


CITY           SKY/WX    TMP DP  RH WIND       PRES   REMARKS
BOISE          PTSUNNY   76  35  22 SE12      29.75F
CALDWELL       PTSUNNY   55  45  67 W5        29.79S
MOUNTAIN HOME  CLOUDY    73  37  26 E13       29.77F
$$

IDZ016-017-252200-
SOUTHCENTRAL IDAHO


CITY           SKY/WX    TMP DP  RH WIND       PRES   REMARKS
BURLEY         CLOUDY    73  31  21 S18G28    29.87F
JEROME         CLOUDY    75  28  17 S9        29.86F
TWIN FALLS     CLOUDY    77  28  16 S17G26    29.85F
$$

IDZ019>023-252200-
SOUTHEAST IDAHO


CITY           SKY/WX    TMP DP  RH WIND       PRES   REMARKS
IDAHO FALLS    MOSUNNY   76  30  18 S28G35    29.91F
POCATELLO      SUNNY     75  31  19 S26G39    29.91F
REXBURG        SUNNY     73  28  18 SW21G29   29.92F
$$

IDZ006-010-011-018-031-032-252200-
CENTRAL IDAHO MOUNTAINS


CITY           SKY/WX    TMP DP  RH WIND       PRES   REMARKS
MCCALL         MOSUNNY   60  40  47 S17       29.81F
STANLEY          N/A     60  28  29 SE7       29.94F
SALMON         CLOUDY    48  39  71 CALM      29.84F
CHALLIS        PTSUNNY   60  35  39 NW3       29.86F
$$

IDZ002-004-006-007-026-252200-
NORTHERN IDAHO


CITY           SKY/WX    TMP DP  RH WIND       PRES   REMARKS
LEWISTON       SUNNY     65  49  56 E8        29.58F
LOWELL           N/A     57  47  69 CALM      29.71F
COEUR D`ALENE  CLOUDY    55  45  67 NE15      29.59S
MULLAN PASS    MOSUNNY   44  41  89 VRB5      29.74F
$$



USA.gov is the U.S. government's official web portal to all federal, state and local government web resources and services.